User: anonymous   Login
Location: Unspecified
(0.0000°N, 0.0000°E)
Time: 00:03:23
(UTC+00:00)
Language:

STARLINK-37111 - Orbit

View from above orbital plane
View from above orbital plane
View from above satellite
View from above satellite

Ground track
Ground track

The orbit is defined by the following mean orbital elements,

1 68381U          26145.37380968 +.00000000 +00000-0 +70498-3 0 00002
2 68381  97.2866 287.8796 0001511  74.9873 285.1537 15.33456725    01
Epoch (UTC): 25 May 2026 08:58:17
Eccentricity: 0.0001511
inclination: 97.2866°
perigee height: 464 km
apogee height: 467 km
right ascension of ascending node: 287.8796°
argument of perigee: 74.9873°
revolutions per day: 15.33456725
mean anomaly at epoch: 285.1537°

The dashed part of the orbit path shows where the satellite is in the earth's shadow,  

DLR